Date String (YYYY-MM-DD hh:mm:ss) UTC,Instrument flags,Ambient pressure (hPa),Sample flow (lpm),Bypass flow (lpm),Sample temperature (°C),Ambient temperature (°C),ASC tube jacket temperature (°C),LED temperature (°C),Box temperature (°C),Sample RH (%),Span deviation,Mass concentration (μg/m³),Mass concentration (μg/m³),Mass concentration (μg/m³)
DateTimeUTC,F1_M11,P_M11,Q1_M11,Q2_M11,T1_M11,T2_M11,T3_M11,T4_M11,T5_M11,U1_M11,ZSPAN_M11,X0_M11,X2_M11,X1_M11
2022-03-15 23:00:00,,0823.6,4.98,0.00,28.0,27.3,00.0,36.9,29.8,04.2,0000.0,0002.39,0000.92,0000.49
2022-03-15 23:01:00,,0823.7,4.99,0.00,28.0,27.3,00.0,36.9,29.8,04.2,0000.0,0002.95,0000.93,0000.50
2022-03-15 23:02:00,,0823.6,5.01,0.00,28.0,27.3,00.0,36.9,29.8,04.1,0000.0,0002.88,0000.91,0000.50
2022-03-15 23:03:00,,0823.6,5.00,0.00,28.0,27.3,00.0,36.9,29.8,04.3,0000.0,0002.83,0000.89,0000.50
2022-03-15 23:04:00,,0823.7,5.00,0.00,28.0,27.3,00.0,36.9,29.8,04.1,0000.0,0002.73,0000.84,0000.49
2022-03-15 23:05:00,,0823.7,5.00,0.00,28.0,27.3,00.0,36.9,29.7,04.2,0000.0,0002.64,0000.81,0000.49
2022-03-15 23:06:00,,0823.7,4.99,0.00,28.0,27.3,00.0,36.9,29.8,04.4,0000.0,0002.48,0000.77,0000.48
2022-03-15 23:07:00,,0823.6,4.98,0.00,28.1,27.3,00.0,36.9,29.8,04.4,0000.0,0002.34,0000.76,0000.48
2022-03-15 23:08:00,,0823.7,5.00,0.00,28.1,27.4,00.0,36.9,29.9,04.7,0000.0,0002.52,0000.82,0000.48
2022-03-15 23:09:00,,0823.8,4.99,0.00,28.1,27.4,00.0,37.0,29.9,04.3,0000.0,0002.62,0000.83,0000.47
2022-03-15 23:10:00,,0823.8,5.01,0.00,28.1,27.4,00.0,37.0,29.9,04.2,0000.0,0002.68,0000.86,0000.47
2022-03-15 23:11:00,,0823.8,5.01,0.00,28.1,27.4,00.0,37.0,29.9,04.3,0000.0,0002.60,0000.93,0000.48
2022-03-15 23:12:00,,0823.7,5.00,0.00,28.1,27.4,00.0,37.0,29.9,04.3,0000.0,0001.83,0000.94,0000.48
2022-03-15 23:13:00,,0823.7,5.00,0.00,28.1,27.4,00.0,37.0,29.9,04.2,0000.0,0001.84,0000.95,0000.48
2022-03-15 23:14:00,,0823.6,4.99,0.00,28.1,27.4,00.0,37.0,29.9,04.1,0000.0,0002.23,0000.95,0000.47
2022-03-15 23:15:00,,0823.6,5.00,0.00,28.1,27.4,00.0,37.0,29.9,04.2,0000.0,0002.24,0000.98,0000.47
2022-03-15 23:16:00,,0823.7,5.01,0.00,28.2,27.4,00.0,37.0,30.0,04.0,0000.0,0002.26,0000.98,0000.48
2022-03-15 23:17:00,,0823.7,5.00,0.00,28.2,27.5,00.0,37.0,30.0,04.2,0000.0,0002.24,0000.97,0000.48
2022-03-15 23:18:00,,0823.7,5.00,0.00,28.2,27.5,00.0,37.0,29.9,04.5,0000.0,0002.65,0000.99,0000.49
2022-03-15 23:19:00,,0823.8,5.00,0.00,28.2,27.5,00.0,37.0,30.0,04.2,0000.0,0002.94,0000.95,0000.49
2022-03-15 23:20:00,,0823.8,5.00,0.00,28.2,27.5,00.0,37.0,30.0,04.4,0000.0,0002.96,0000.96,0000.49
2022-03-15 23:21:00,,0823.8,5.01,0.00,28.2,27.5,00.0,37.0,30.0,04.4,0000.0,0002.99,0000.96,0000.48
2022-03-15 23:22:00,,0823.8,4.99,0.00,28.2,27.5,00.0,37.1,30.0,04.4,0000.0,0003.03,0000.93,0000.48
2022-03-15 23:23:00,,0823.9,4.99,0.00,28.2,27.5,00.0,37.1,29.9,04.4,0000.0,0002.97,0000.90,0000.48
2022-03-15 23:24:00,,0823.9,4.99,0.00,28.2,27.5,00.0,37.1,30.0,04.4,0000.0,0002.96,0000.89,0000.48
2022-03-15 23:25:00,,0823.8,4.99,0.00,28.2,27.5,00.0,37.1,30.0,04.4,0000.0,0002.54,0000.88,0000.49
2022-03-15 23:26:00,,0823.8,5.01,0.00,28.2,27.6,00.0,37.1,30.0,04.4,0000.0,0002.63,0000.88,0000.50
2022-03-15 23:27:00,,0823.8,5.01,0.00,28.3,27.6,00.0,37.1,30.0,04.4,0000.0,0002.69,0000.89,0000.50
2022-03-15 23:28:00,,0823.8,4.99,0.00,28.2,27.6,00.0,37.1,30.0,04.6,0000.0,0002.81,0000.93,0000.50
2022-03-15 23:29:00,,0823.8,4.99,0.00,28.3,27.6,00.0,37.1,30.0,04.6,0000.0,0002.50,0000.93,0000.50
2022-03-15 23:30:00,,0823.8,5.00,0.00,28.3,27.6,00.0,37.1,30.1,04.4,0000.0,0002.04,0000.91,0000.48
2022-03-15 23:31:00,,0823.9,5.00,0.00,28.3,27.6,00.0,37.2,30.1,04.4,0000.0,0002.07,0000.92,0000.49
2022-03-15 23:32:00,,0823.9,5.00,0.00,28.3,27.6,00.0,37.2,30.1,04.2,0000.0,0001.95,0000.90,0000.49
2022-03-15 23:33:00,,0823.9,5.01,0.00,28.3,27.6,00.0,37.2,30.0,04.2,0000.0,0001.88,0000.86,0000.49
2022-03-15 23:34:00,,0823.9,4.99,0.00,28.3,27.6,00.0,37.2,30.0,04.2,0000.0,0002.04,0000.85,0000.49
2022-03-15 23:35:00,,0823.9,4.99,0.00,28.3,27.6,00.0,37.2,30.1,04.2,0000.0,0002.02,0000.84,0000.49
2022-03-15 23:36:00,,0823.9,4.99,0.00,28.3,27.6,00.0,37.2,30.1,04.2,0000.0,0001.99,0000.83,0000.48
2022-03-15 23:37:00,,0823.9,5.00,0.00,28.3,27.6,00.0,37.2,30.1,04.2,0000.0,0001.86,0000.82,0000.48
2022-03-15 23:38:00,,0823.9,5.01,0.00,28.4,27.7,00.0,37.2,30.1,04.3,0000.0,0001.79,0000.80,0000.48
2022-03-15 23:39:00,,0823.9,5.01,0.00,28.4,27.7,00.0,37.2,30.1,04.1,0000.0,0001.81,0000.81,0000.49
2022-03-15 23:40:00,,0823.9,5.01,0.00,28.4,27.7,00.0,37.2,30.1,04.1,0000.0,0001.78,0000.80,0000.49
2022-03-15 23:41:00,,0823.9,5.00,0.00,28.4,27.7,00.0,37.3,30.1,04.2,0000.0,0001.83,0000.83,0000.50
2022-03-15 23:42:00,,0823.9,4.99,0.00,28.4,27.7,00.0,37.3,30.1,04.2,0000.0,0001.66,0000.78,0000.50
2022-03-15 23:43:00,,0823.8,5.00,0.00,28.4,27.7,00.0,37.3,30.1,04.2,0000.0,0001.63,0000.76,0000.50
2022-03-15 23:44:00,,0823.8,5.01,0.00,28.4,27.7,00.0,37.3,30.1,04.5,0000.0,0001.61,0000.77,0000.50
2022-03-15 23:45:00,,0823.9,5.01,0.00,28.4,27.7,00.0,37.3,30.2,04.6,0000.0,0001.47,0000.80,0000.51
2022-03-15 23:46:00,,0824.0,4.99,0.00,28.4,27.8,00.0,37.3,30.2,04.2,0000.0,0001.53,0000.83,0000.51
2022-03-15 23:47:00,,0824.0,4.99,0.00,28.5,27.8,00.0,37.3,30.2,04.2,0000.0,0001.62,0000.86,0000.52
2022-03-15 23:48:00,,0823.9,5.00,0.00,28.5,27.8,00.0,37.3,30.3,04.3,0000.0,0001.61,0000.86,0000.52
2022-03-15 23:49:00,,0823.9,5.02,0.00,28.5,27.8,00.0,37.4,30.3,04.3,0000.0,0001.89,0000.86,0000.51
2022-03-15 23:50:00,,0823.9,5.00,0.00,28.5,27.8,00.0,37.4,30.3,04.3,0000.0,0002.79,0000.87,0000.51
2022-03-15 23:51:00,,0823.9,5.00,0.00,28.5,27.8,00.0,37.4,30.3,04.4,0000.0,0002.75,0000.85,0000.50
2022-03-15 23:52:00,,0823.9,4.99,0.00,28.5,27.9,00.0,37.4,30.3,04.3,0000.0,0002.81,0000.86,0000.51
2022-03-15 23:53:00,,0823.9,5.02,0.00,28.6,27.9,00.0,37.4,30.4,04.4,0000.0,0002.86,0000.90,0000.51
2022-03-15 23:54:00,,0823.9,5.00,0.00,28.6,27.9,00.0,37.4,30.3,04.3,0000.0,0002.88,0000.91,0000.52
2022-03-15 23:55:00,,0823.8,4.99,0.00,28.6,27.9,00.0,37.4,30.3,04.3,0000.0,0003.07,0000.98,0000.52
2022-03-15 23:56:00,,0823.8,5.01,0.00,28.6,27.9,00.0,37.4,30.3,04.3,0000.0,0003.04,0000.97,0000.52
2022-03-15 23:57:00,,0823.8,5.00,0.00,28.6,27.9,00.0,37.5,30.4,04.4,0000.0,0003.10,0000.99,0000.52
2022-03-15 23:58:00,,0823.9,5.00,0.00,28.6,27.9,00.0,37.5,30.4,04.4,0000.0,0003.17,0000.99,0000.52
2022-03-15 23:59:00,,0823.8,4.99,0.00,28.6,27.9,00.0,37.5,30.4,04.4,0000.0,0003.22,0001.01,0000.52
